Starlink 11472

operational
NORAD ID: 62067 Int'l Des: 2024-217 Owner: SPXS Country: US Constellation: starlink
LEOCIRCULAR

Starlink 11472について

説明を読み込み中...

リアルタイム位置

3D地球を読み込み中...

次回通過

高度履歴

Altitude vs Time

uPlot chart will show altitude changes over time

軌道要素

1 62067U 24217L 25351.58807338 .00151938 00000-0 12337-2 0 9990
2 62067 53.1579 116.3471 0000409 325.0577 35.0414 15.69757540 62204
Epoch: Dec 17, 2025 • Age: 11 hours

現在のステータス

高度 360.5 km
速度 7.70 km/s
衛星直下点 27.73°N, 35.89°E
打ち上げ日 Nov 24, 2024
運用期間 1 years
タイプ internet

技術仕様

分類 Payload
質量 960.00 kg
乾燥質量 910.00 kg
総質量 960.00 kg
長さ 0.30 m
直径 4.10 m
スパン 29.00 m
形状 Box + pan
製造者 SPXS
バスタイプ Starlink V2MD
フェーズステータス In Orbit
所有者/国 SPXS/US

大規模コンステレーション

Loading constellations...